Location: Miss�
(46.9484°N, 0.1922°W)
Time: 08:53:28
(UTC+00:00)

Cosmos 1066 Rocket - Pass Details

Date: 02 March 2021
Orbit: 799 x 894 km, 81.2° (Epoch: 13 April)

Event Time Altitude Azimuth Distance (km) Brightness Sun altitude
Rises 19:48:36 0° 351° (N) 3,432 7.7 -21.3°
Reaches altitude 10° 19:51:03 10° 355° (N) 2,506 6.9 -21.7°
Maximum altitude 19:56:42 61° 76° (ENE) 991 4.2 -22.6°
Enters shadow 19:58:02 48° 126° (SE) 1,131 4.4 -22.8°
